Location: Skymont Scout Reservation
(35.4344°N, 85.8742°W)
Time: 21:11:45
(UTC-05:00)

ISS - All Passes

Search period start: 19 June 2018 00:00
Search period end: 29 June 2018 00:00
Orbit: 402 x 406 km, 51.6° (Epoch: 20 June)

Date Brightness Start Highest point End Pass type
(mag) Time Alt. Az. Time Alt. Az. Time Alt. Az.
19 Jun - 09:01:47 10° SSW 09:04:51 38° SE 09:07:56 10° ENE daylight
19 Jun - 10:38:53 10° W 10:41:26 20° NNW 10:43:58 10° NNE daylight
19 Jun - 15:32:35 10° NNW 15:34:44 16° NNE 15:36:52 10° ENE daylight
19 Jun - 17:08:13 10° NW 17:11:27 57° SW 17:14:39 10° SE daylight
20 Jun - 08:10:24 10° S 08:12:44 18° SE 08:15:04 10° E daylight
20 Jun - 09:45:57 10° WSW 09:49:00 35° NW 09:52:03 10° NNE daylight
20 Jun - 14:41:21 10° N 14:42:10 11° NNE 14:42:59 10° NE daylight
20 Jun - 16:15:56 10° NW 16:19:12 64° NE 16:22:26 10° ESE daylight
21 Jun - 08:53:23 10° SW 08:56:40 72° NW 08:59:57 10° NE daylight
21 Jun - 10:32:29 10° NW 10:33:39 11° NNW 10:34:47 10° N daylight
21 Jun - 15:23:51 10° NNW 15:26:50 32° NE 15:29:48 10° ESE daylight
21 Jun - 17:00:40 10° W 17:03:09 20° SW 17:05:38 10° S daylight
22 Jun - 08:01:13 10° SSW 08:04:24 50° SE 08:07:36 10° ENE daylight
22 Jun - 09:38:48 10° WNW 09:41:04 17° NNW 09:43:22 10° NNE daylight
22 Jun - 14:31:57 10° NNW 14:34:22 19° NNE 14:36:47 10° ENE daylight
22 Jun - 16:07:51 10° WNW 16:10:59 42° SW 16:14:05 10° SSE daylight
23 Jun - 07:09:32 10° S 07:12:12 23° SE 07:14:53 10° ENE daylight
23 Jun - 08:45:41 10° W 08:48:35 28° NW 08:51:29 10° NNE daylight
23 Jun - 13:40:22 10° N 13:41:48 12° NNE 13:43:14 10° NE daylight
23 Jun - 15:15:26 10° NW 15:18:43 84° NE 15:21:59 10° SE daylight
24 Jun - 06:19:00 10° SE 06:20:05 11° SE 06:21:10 10° ESE daylight
24 Jun - 07:52:57 10° WSW 07:56:10 55° NW 07:59:24 10° NE daylight
24 Jun - 14:23:14 10° NW 14:26:21 39° NE 14:29:27 10° ESE daylight
24 Jun - 16:00:31 10° W 16:02:35 16° SW 16:04:37 10° SSW daylight
25 Jun - 07:00:35 10° SW 07:03:50 68° SE 07:07:06 10° NE daylight
25 Jun - 08:38:38 10° WNW 08:40:37 15° NNW 08:42:36 10° N daylight
25 Jun - 13:31:14 10° NNW 13:33:54 22° NNE 13:36:32 10° E daylight
25 Jun - 15:07:25 10° WNW 15:10:23 32° SW 15:13:21 10° SSE daylight
26 Jun - 06:08:40 10° SSW 06:11:35 30° SE 06:14:30 10° ENE daylight
26 Jun - 07:45:20 10° W 07:48:03 23° NNW 07:50:47 10° NNE daylight
26 Jun - 12:39:27 10° N 12:41:19 14° NNE 12:43:10 10° ENE daylight
26 Jun - 14:14:51 10° NW 14:18:07 74° SW 14:21:22 10° SE daylight
27 Jun - 05:17:30 10° SSE 05:19:23 15° SE 05:21:17 10° E daylight
27 Jun - 06:52:26 10° WSW 06:55:34 42° NW 06:58:43 10° NE daylight
27 Jun - 13:22:33 10° NW 13:25:45 50° NE 13:28:56 10° ESE daylight
27 Jun - 15:00:28 10° WSW 15:01:52 12° SW 15:03:16 10° SSW daylight
28 Jun - 05:59:54 10° SW 06:03:10 89° SE 06:06:27 10° NE daylight
28 Jun - 07:38:27 10° NW 07:40:03 13° NNW 07:41:39 10° N daylight
28 Jun - 12:30:26 10° NNW 12:33:17 26° NE 12:36:07 10° E daylight
28 Jun - 14:06:55 10° WNW 14:09:41 25° SW 14:12:25 10° S daylight
